Location: Gloden
(48.4833°N, 15.3167°E)
Time: 09:39:44
(UTC+00:00)

CZ-4B R/B - Pass Details

Date: 15 December 2019
Orbit: 809 x 881 km, 99.1° (Epoch: 26 January)

Event Time Altitude Azimuth Distance (km) Brightness Sun altitude
Rises 04:16:31 0° 19° (NNE) 3,463 6.5 -23.2°
Reaches altitude 10° 04:18:59 10° 25° (NNE) 2,530 5.8 -22.8°
Maximum altitude 04:24:27 50° 100° (E) 1,111 4.2 -21.9°
Drops below altitude 10° 04:29:56 10° 175° (S) 2,533 5.9 -21.0°
Sets 04:32:24 0° 181° (S) 3,468 6.5 -20.6°
